Location: Newark
(39.1400°N, 92.7000°W)
Time: 22:36:27
(UTC+00:00)

Envisat - Visible Passes

Search period start: 19 August 2019 00:00
Search period end: 29 August 2019 00:00
Orbit: 764 x 766 km, 98.1° (Epoch: 19 August)

Date Brightness Start Highest point End Pass type
(mag) Time Alt. Az. Time Alt. Az. Time Alt. Az.
20 Aug 6.0 01:54:03 10° WSW 01:56:26 13° W 01:58:49 10° WNW visible
23 Aug 5.8 01:41:47 10° SW 01:45:04 17° W 01:48:21 10° NW visible
26 Aug 5.7 01:29:51 10° SW 01:33:43 22° W 01:37:37 10° NW visible
28 Aug 6.1 01:57:38 10° WSW 01:59:29 12° W 02:01:21 10° WNW visible
